Orbital Elements at Epoch 2459000.5 (2020-May-31.0) TDB
Reference: JPL 16 (heliocentric ecliptic J2000)
Element | Value | Uncertainty (1-sigma) | Units |
e | .142178249939101 | 3.0935e-08 | |
a | 2.532403059072351 | 1.5557e-08 | au |
q | 2.172350423993018 | 7.9099e-08 | au |
i | 14.38982589637485 | 4.9625e-06 | deg |
node | 129.4823767005216 | 1.4145e-05 | deg |
peri | 79.90601155941877 | 2.4924e-05 | deg |
M | 149.3769118092097 | 2.1585e-05 | deg |
tp | 2458389.728664132502 (2018-Sep-28.22866413) | 8.6177e-05 | TDB |
period | 1471.965635446633 4.03 | 1.3563e-05 3.713e-08 | d yr |
n | .2445709270181205 | 2.2536e-09 | deg/d |
Q | 2.892455694151683 | 1.7768e-08 | au |
|
| | Orbit Determination Parameters
Additional Information
|